Rochelle, IL

12:09 PM CST on December 06, 2019 (GMT -0600)
Rochelle

Weather History for KRPJ - August, 2019

Change the Weather History Date:

Friday, August 23, 2019

  Actual Average (KRFD) Record (KRFD)
Temperature  
Mean Temperature 64 °F -  
Max Temperature 75 °F 79 °F 101 °F (1947)
Min Temperature 53 °F 59 °F 42 °F (1920)
Degree Days  
Heating Degree Days 1    
Growing Degree Days 14 (Base 50)    
Moisture  
Dew Point 56 °F    
Average Humidity 78    
Maximum Humidity 99    
Minimum Humidity 52    
Precipitation  
Precipitation 0.00 in - - ()
Sea Level Pressure  
Sea Level Pressure 30.20 in    
Wind  
Wind Speed 6 mph ()    
Max Wind Speed 13 mph    
Max Gust Speed 17 mph    
Visibility 10.0 miles    
Events      
Averages and records for this station are not official NWS values.
T = Trace of Precipitation, MM = Missing Value Source: Averaged Metar Reports

Daily Weather History Graph

Daily Weather History Graph

Search for Another Location

Airport or City:

Astronomy

Aug. 23, 2019 Rise Set
Actual Time 6:12 AM CDT 7:44 PM CDT
Civil Twilight 5:43 AM CDT 8:13 PM CDT
Nautical Twilight 5:07 AM CDT 8:49 PM CDT
Astronomical Twilight 4:29 AM CDT 9:26 PM CDT
Moon No Moon Rise 1:56 PM CDT (8/23)
Length of Visible Light 14h 30m
Length of Day
13h 32m
Waning Gibbous, 49% of the Moon is Illuminated
Aug 23
Waning Gibbous
Aug 30
New
Sep 5
First Quarter
Sep 13
Full
Sep 21
Last Quarter

Hourly Weather History & Observations

Time (CDT) Temp. Dew Point Humidity Pressure Visibility Wind Dir Wind Speed Gust Speed Precip Events Conditions
12:15 AM 56.8 °F 55.4 °F 95% 30.10 in 10.0 mi NE 3.5 mph - N/A   Clear
12:35 AM 56.7 °F 55.2 °F 95% 30.12 in 10.0 mi ENE 3.5 mph - N/A   Clear
12:55 AM 56.5 °F 55.2 °F 96% 30.13 in 10.0 mi NE 5.8 mph - N/A   Clear
1:15 AM 56.8 °F 55.4 °F 95% 30.13 in 10.0 mi NNE 4.6 mph - N/A   Clear
1:35 AM 56.5 °F 55.4 °F 96% 30.14 in 10.0 mi NE 3.5 mph - N/A   Clear
1:55 AM 55.9 °F 55.0 °F 97% 30.14 in 10.0 mi NNE 6.9 mph - N/A   Clear
2:15 AM 55.4 °F 54.9 °F 98% 30.14 in 10.0 mi Calm Calm - N/A   Clear
2:35 AM 55.4 °F 54.9 °F 98% 30.14 in 10.0 mi Calm Calm - N/A   Clear
2:55 AM 54.5 °F 54.3 °F 99% 30.14 in 10.0 mi Calm Calm - N/A   Clear
3:15 AM 53.8 °F 53.6 °F 99% 30.14 in 10.0 mi NNE 4.6 mph - N/A   Clear
3:35 AM 54.3 °F 54.0 °F 99% 30.14 in 10.0 mi NE 3.5 mph - N/A   Clear
3:55 AM 54.5 °F 54.1 °F 99% 30.14 in 10.0 mi NE 4.6 mph - N/A   Clear
4:15 AM 54.7 °F 54.1 °F 98% 30.14 in 10.0 mi NE 4.6 mph - N/A   Clear
4:35 AM 54.5 °F 54.0 °F 98% 30.14 in 10.0 mi NE 4.6 mph - N/A   Clear
4:55 AM 54.0 °F 53.6 °F 99% 30.14 in 10.0 mi NE 3.5 mph - N/A   Clear
5:15 AM 54.1 °F 53.6 °F 98% 30.14 in 10.0 mi NE 5.8 mph - N/A   Clear
5:35 AM 54.7 °F 53.8 °F 97% 30.14 in 10.0 mi ENE 4.6 mph - N/A   Clear
5:55 AM 54.5 °F 53.6 °F 97% 30.15 in 10.0 mi NE 4.6 mph - N/A   Clear
6:15 AM 54.9 °F 53.8 °F 96% 30.16 in 10.0 mi NE 5.8 mph - N/A   Clear
6:35 AM 54.7 °F 53.8 °F 97% 30.17 in 10.0 mi NE 5.8 mph - N/A   Clear
7:15 AM 56.3 °F 54.7 °F 94% 30.18 in 10.0 mi NE 4.6 mph - N/A   Clear
7:35 AM 57.7 °F 55.8 °F 93% 30.19 in 10.0 mi ENE 4.6 mph - N/A   Clear
7:55 AM 60.1 °F 56.8 °F 89% 30.20 in 10.0 mi East 4.6 mph - N/A   Clear
8:15 AM 62.6 °F 57.4 °F 83% 30.20 in 10.0 mi East 6.9 mph - N/A   Clear
8:35 AM 64.2 °F 58.5 °F 82% 30.21 in 10.0 mi ENE 8.1 mph - N/A   Clear
8:55 AM 65.5 °F 58.6 °F 79% 30.22 in 10.0 mi ENE 9.2 mph - N/A   Clear
9:15 AM 66.6 °F 58.6 °F 76% 30.22 in 10.0 mi East 6.9 mph - N/A   Clear
9:35 AM 68.0 °F 58.6 °F 72% 30.22 in 10.0 mi East 10.4 mph - N/A   Clear
9:55 AM 68.7 °F 57.9 °F 68% 30.23 in 10.0 mi East 12.7 mph - N/A   Clear
10:15 AM 69.8 °F 57.7 °F 65% 30.23 in 10.0 mi East 9.2 mph - N/A   Clear
10:35 AM 69.8 °F 58.1 °F 66% 30.23 in 10.0 mi ENE 9.2 mph - N/A   Clear
10:55 AM 70.2 °F 57.0 °F 63% 30.23 in 10.0 mi East 6.9 mph - N/A   Clear
11:15 AM 71.4 °F 58.3 °F 63% 30.23 in 10.0 mi NE 11.5 mph - N/A   Clear
11:35 AM 71.6 °F 58.3 °F 63% 30.23 in 10.0 mi NE 10.4 mph - N/A   Clear
11:55 AM 71.8 °F 57.9 °F 62% 30.23 in 10.0 mi ENE 9.2 mph - N/A   Clear
12:15 PM 71.2 °F 57.9 °F 63% 30.22 in 10.0 mi East 11.5 mph - N/A   Clear
12:35 PM 72.3 °F 58.6 °F 62% 30.22 in 10.0 mi NE 11.5 mph - N/A   Scattered Clouds
12:55 PM 73.2 °F 58.8 °F 61% 30.22 in 10.0 mi NE 10.4 mph - N/A   Scattered Clouds
1:15 PM 73.6 °F 57.2 °F 56% 30.21 in 10.0 mi East 12.7 mph 17.3 mph N/A   Scattered Clouds
1:35 PM 72.7 °F 57.6 °F 59% 30.21 in 10.0 mi East 11.5 mph - N/A   Mostly Cloudy
1:55 PM 75.2 °F 58.5 °F 56% 30.21 in 10.0 mi ENE 9.2 mph - N/A   Scattered Clouds
2:15 PM 73.0 °F 56.1 °F 55% 30.21 in 10.0 mi ESE 9.2 mph - N/A   Scattered Clouds
2:40 PM 74.1 °F 55.8 °F 53% 30.21 in 10.0 mi NE 8.1 mph - N/A   Scattered Clouds
2:55 PM 74.3 °F 55.8 °F 52% 30.21 in 10.0 mi ENE 11.5 mph 16.1 mph N/A   Scattered Clouds
3:15 PM 71.8 °F 54.1 °F 54% 30.21 in 10.0 mi ENE 5.8 mph - N/A   Scattered Clouds
3:35 PM 74.7 °F 56.7 °F 53% 30.20 in 10.0 mi East 6.9 mph - N/A   Scattered Clouds
3:55 PM 72.3 °F 56.1 °F 57% 30.21 in 10.0 mi NE 10.4 mph - N/A   Mostly Cloudy
4:15 PM 73.8 °F 54.9 °F 52% 30.20 in 10.0 mi ENE 9.2 mph - N/A   Scattered Clouds
4:35 PM 73.9 °F 55.8 °F 53% 30.20 in 10.0 mi ENE 10.4 mph 17.3 mph N/A   Clear
4:55 PM 72.9 °F 57.6 °F 59% 30.19 in 10.0 mi ENE 12.7 mph - N/A   Scattered Clouds
5:15 PM 72.7 °F 56.5 °F 57% 30.19 in 10.0 mi East 11.5 mph - N/A   Scattered Clouds
5:35 PM 72.5 °F 55.9 °F 56% 30.20 in 10.0 mi ENE 10.4 mph - N/A   Clear
5:55 PM 72.0 °F 56.3 °F 58% 30.20 in 10.0 mi ENE 11.5 mph - N/A   Clear
6:15 PM 71.2 °F 55.8 °F 58% 30.20 in 10.0 mi ENE 10.4 mph - N/A   Clear
6:35 PM 70.5 °F 56.8 °F 62% 30.20 in 10.0 mi ENE 10.4 mph 16.1 mph N/A   Clear
6:55 PM 69.6 °F 56.5 °F 63% 30.20 in 10.0 mi ENE 10.4 mph - N/A   Clear
7:15 PM 68.4 °F 56.5 °F 66% 30.20 in 10.0 mi ENE 8.1 mph - N/A   Clear
7:35 PM 66.7 °F 57.0 °F 71% 30.21 in 10.0 mi ENE 8.1 mph - N/A   Clear
7:55 PM 65.3 °F 56.7 °F 74% 30.21 in 10.0 mi ENE 9.2 mph - N/A   Clear
8:15 PM 64.0 °F 56.8 °F 77% 30.21 in 10.0 mi ENE 6.9 mph - N/A   Clear
8:35 PM 63.3 °F 56.7 °F 79% 30.22 in 10.0 mi ENE 8.1 mph - N/A   Clear
8:55 PM 61.9 °F 56.8 °F 84% 30.23 in 10.0 mi East 5.8 mph - N/A   Clear
9:15 PM 61.2 °F 56.7 °F 85% 30.24 in 10.0 mi ENE 5.8 mph - N/A   Clear
9:35 PM 60.8 °F 56.1 °F 85% 30.24 in 10.0 mi ENE 5.8 mph - N/A   Clear
9:55 PM 59.9 °F 55.8 °F 86% 30.25 in 10.0 mi East 3.5 mph - N/A   Clear
10:15 PM 57.2 °F 55.6 °F 94% 30.25 in 10.0 mi ENE 5.8 mph - N/A   Clear
10:30 PM 57.2 °F 54.7 °F 91% 30.26 in 10.0 mi NE 3.5 mph - N/A   Clear
10:55 PM 56.7 °F 54.5 °F 92% 30.26 in 10.0 mi NE 6.9 mph - N/A   Clear
11:15 PM 56.7 °F 54.5 °F 92% 30.25 in 10.0 mi NE 6.9 mph - N/A   Clear
11:35 PM 56.1 °F 53.4 °F 91% 30.26 in 10.0 mi NE 4.6 mph - N/A   Clear
11:55 PM 55.6 °F 53.6 °F 93% 30.26 in 10.0 mi Calm Calm - N/A   Clear